Tracking 32577 objects as of 15-Dec-2025
HD Live streaming from Space Station
objects crossing your sky now

SL-16 DEB

Track SL-16 DEB now!
10-day predictions


NORAD ID: 22615
Int'l Code: 1993-016Z
Perigee: 827.0 km
Apogee: 1,016.2 km
Inclination: 71.0 °
Period: 103.3 minutes
Semi major axis: 7292 km
RCS: 0.015 m2 (small)
Launch date: March 26, 1993
Source: Commonwealth of Independent States (former USSR) (CIS)
Launch site: TYURATAM MISSILE AND SPACE COMPLEX (TTMTR)

Note: This is SATELLITE DEBRIS
Your satellite tracking list
Your tracking list is empty




NASA's NSSDC Master Catalog

Two Line Element Set (TLE):
1 22615U 93016Z   25348.10855686  .00000836  00000-0  62064-3 0  9994
2 22615  71.0027  85.9107 0129694  31.3377  37.6832 13.94060333655771
Source of the keplerian elements: AFSPC